Time,TemperatureF,DewpointF,PressureIn,WindDirection,WindDirectionDegrees,WindSpeedMPH,WindSpeedGustMPH,Humidity,HourlyPrecipIn,Conditions,Clouds,dailyrainin,SoftwareType,DateUTC
2013-08-16 00:01:00,49.4,49.0,29.46,West,270,3.0,0.0,100,0.00,,,0.00,Rainwise IP-100,2013-08-16 04:01:00,
2013-08-16 00:06:00,49.4,49.0,29.46,West,270,0.0,3.0,100,0.00,,,0.00,Rainwise IP-100,2013-08-16 04:06:00,
2013-08-16 00:11:00,49.4,49.0,29.46,West,270,2.0,3.0,100,0.00,,,0.00,Rainwise IP-100,2013-08-16 04:11:00,
2013-08-16 00:16:00,49.5,50.0,29.46,West,270,0.0,2.0,100,0.00,,,0.00,Rainwise IP-100,2013-08-16 04:16:00,
2013-08-16 00:21:00,49.3,49.0,29.46,West,270,0.0,0.0,100,0.00,,,0.00,Rainwise IP-100,2013-08-16 04:21:00,
2013-08-16 00:26:00,49.2,49.0,29.46,West,270,0.0,2.0,100,0.00,,,0.00,Rainwise IP-100,2013-08-16 04:26:00,
2013-08-16 00:31:00,49.2,49.0,29.45,West,270,0.0,1.0,100,0.00,,,0.00,Rainwise IP-100,2013-08-16 04:31:00,
2013-08-16 00:37:00,49.1,49.0,29.45,West,270,0.0,2.0,100,0.00,,,0.00,Rainwise IP-100,2013-08-16 04:37:00,
2013-08-16 00:42:00,48.9,49.0,29.45,West,270,0.0,2.0,100,0.00,,,0.00,Rainwise IP-100,2013-08-16 04:42:00,
2013-08-16 00:47:00,48.7,49.0,29.45,West,270,2.0,2.0,100,0.00,,,0.00,Rainwise IP-100,2013-08-16 04:47:00,
2013-08-16 00:52:00,48.6,49.0,29.45,West,270,0.0,3.0,100,0.00,,,0.00,Rainwise IP-100,2013-08-16 04:52:00,
2013-08-16 00:57:00,48.4,48.0,29.45,West,270,0.0,2.0,100,0.00,,,0.00,Rainwise IP-100,2013-08-16 04:57:00,
2013-08-16 01:02:00,48.3,48.0,29.45,West,270,0.0,3.0,100,0.00,,,0.00,Rainwise IP-100,2013-08-16 05:02:00,
2013-08-16 01:07:00,48.3,48.0,29.45,West,270,0.0,2.0,100,0.00,,,0.00,Rainwise IP-100,2013-08-16 05:07:00,
2013-08-16 01:13:00,48.1,48.0,29.45,West,270,0.0,0.0,100,0.00,,,0.00,Rainwise IP-100,2013-08-16 05:13:00,
2013-08-16 01:19:00,47.8,47.0,29.45,West,270,2.0,3.0,100,0.00,,,0.00,Rainwise IP-100,2013-08-16 05:19:00,
2013-08-16 01:20:00,48.1,48.0,29.45,West,270,0.0,3.0,100,0.00,,,0.00,Rainwise IP-100,2013-08-16 05:20:00,
2013-08-16 01:22:00,47.9,48.0,29.45,West,270,1.0,3.0,100,0.00,,,0.00,Rainwise IP-100,2013-08-16 05:22:00,
2013-08-16 01:27:00,47.9,48.0,29.45,West,270,1.0,2.0,100,0.00,,,0.00,Rainwise IP-100,2013-08-16 05:27:00,
2013-08-16 01:32:00,47.9,48.0,29.45,West,270,0.0,3.0,100,0.00,,,0.00,Rainwise IP-100,2013-08-16 05:32:00,
2013-08-16 01:37:00,47.7,47.0,29.45,West,270,0.0,0.0,100,0.00,,,0.00,Rainwise IP-100,2013-08-16 05:37:00,
2013-08-16 01:43:00,47.8,47.0,29.45,West,270,1.0,2.0,100,0.00,,,0.00,Rainwise IP-100,2013-08-16 05:43:00,
2013-08-16 01:48:00,47.8,47.0,29.45,West,270,0.0,2.0,100,0.00,,,0.00,Rainwise IP-100,2013-08-16 05:48:00,
2013-08-16 01:53:00,47.7,47.0,29.45,West,270,0.0,4.0,100,0.00,,,0.00,Rainwise IP-100,2013-08-16 05:53:00,
2013-08-16 01:58:00,47.6,47.0,29.45,West,270,1.0,0.0,100,0.00,,,0.00,Rainwise IP-100,2013-08-16 05:58:00,
2013-08-16 02:03:00,47.5,47.0,29.45,West,270,1.0,2.0,100,0.00,,,0.00,Rainwise IP-100,2013-08-16 06:03:00,
2013-08-16 02:08:00,47.7,47.0,29.45,West,270,0.0,3.0,100,0.00,,,0.00,Rainwise IP-100,2013-08-16 06:08:00,
2013-08-16 02:13:00,47.7,47.0,29.45,West,270,0.0,1.0,100,0.00,,,0.00,Rainwise IP-100,2013-08-16 06:13:00,
2013-08-16 02:18:00,47.8,47.0,29.45,West,270,1.0,0.0,100,0.00,,,0.00,Rainwise IP-100,2013-08-16 06:18:00,
2013-08-16 02:24:00,48.0,48.0,29.45,West,270,0.0,2.0,100,0.00,,,0.00,Rainwise IP-100,2013-08-16 06:24:00,
2013-08-16 02:29:00,47.8,47.0,29.45,West,270,2.0,3.0,100,0.00,,,0.00,Rainwise IP-100,2013-08-16 06:29:00,
2013-08-16 02:34:00,47.9,48.0,29.45,West,270,2.0,2.0,100,0.00,,,0.00,Rainwise IP-100,2013-08-16 06:34:00,
2013-08-16 02:39:00,47.9,48.0,29.45,West,270,1.0,4.0,100,0.00,,,0.00,Rainwise IP-100,2013-08-16 06:39:00,
2013-08-16 02:44:00,47.9,48.0,29.45,West,270,0.0,1.0,100,0.00,,,0.00,Rainwise IP-100,2013-08-16 06:44:00,
2013-08-16 02:49:00,47.8,47.0,29.45,WSW,247,1.0,4.0,100,0.00,,,0.00,Rainwise IP-100,2013-08-16 06:49:00,
2013-08-16 02:54:00,47.9,48.0,29.45,WSW,247,0.0,2.0,100,0.00,,,0.00,Rainwise IP-100,2013-08-16 06:54:00,
2013-08-16 03:00:00,47.8,47.0,29.45,WSW,247,0.0,0.0,100,0.00,,,0.00,Rainwise IP-100,2013-08-16 07:00:00,
2013-08-16 03:05:00,47.9,48.0,29.45,WSW,247,0.0,6.0,100,0.00,,,0.00,Rainwise IP-100,2013-08-16 07:05:00,
2013-08-16 03:10:00,47.9,48.0,29.45,WSW,247,2.0,3.0,100,0.00,,,0.00,Rainwise IP-100,2013-08-16 07:10:00,
2013-08-16 03:15:00,48.1,48.0,29.45,WSW,247,0.0,3.0,100,0.00,,,0.00,Rainwise IP-100,2013-08-16 07:15:00,
2013-08-16 03:20:00,48.0,48.0,29.45,WSW,247,0.0,3.0,100,0.00,,,0.00,Rainwise IP-100,2013-08-16 07:20:00,
2013-08-16 03:25:00,47.8,47.0,29.45,WSW,247,0.0,0.0,100,0.00,,,0.00,Rainwise IP-100,2013-08-16 07:25:00,
2013-08-16 03:30:00,47.7,47.0,29.45,WSW,247,0.0,0.0,100,0.00,,,0.00,Rainwise IP-100,2013-08-16 07:30:00,
2013-08-16 03:35:00,47.6,47.0,29.45,WSW,247,0.0,0.0,100,0.00,,,0.00,Rainwise IP-100,2013-08-16 07:35:00,
2013-08-16 03:41:00,47.6,47.0,29.45,WSW,247,0.0,0.0,100,0.00,,,0.00,Rainwise IP-100,2013-08-16 07:41:00,
2013-08-16 03:46:00,47.3,47.0,29.45,WSW,247,0.0,0.0,100,0.00,,,0.00,Rainwise IP-100,2013-08-16 07:46:00,
2013-08-16 03:51:00,47.2,47.0,29.45,WSW,247,0.0,0.0,100,0.00,,,0.00,Rainwise IP-100,2013-08-16 07:51:00,
2013-08-16 03:56:00,46.9,47.0,29.45,WSW,247,0.0,0.0,100,0.00,,,0.00,Rainwise IP-100,2013-08-16 07:56:00,
2013-08-16 04:01:00,47.1,47.0,29.45,WSW,247,1.0,3.0,100,0.00,,,0.00,Rainwise IP-100,2013-08-16 08:01:00,
2013-08-16 04:06:00,47.3,47.0,29.45,WSW,247,0.0,2.0,100,0.00,,,0.00,Rainwise IP-100,2013-08-16 08:06:00,
2013-08-16 04:11:00,47.3,47.0,29.45,WSW,247,0.0,1.0,100,0.00,,,0.00,Rainwise IP-100,2013-08-16 08:11:00,
2013-08-16 04:17:00,47.3,47.0,29.45,WSW,247,0.0,0.0,100,0.00,,,0.00,Rainwise IP-100,2013-08-16 08:17:00,
2013-08-16 04:22:00,47.2,47.0,29.45,SW,225,1.0,1.0,100,0.00,,,0.00,Rainwise IP-100,2013-08-16 08:22:00,
2013-08-16 04:27:00,47.4,47.0,29.45,SW,225,0.0,3.0,100,0.00,,,0.00,Rainwise IP-100,2013-08-16 08:27:00,
2013-08-16 04:32:00,47.2,47.0,29.45,SW,225,0.0,0.0,100,0.00,,,0.00,Rainwise IP-100,2013-08-16 08:32:00,
2013-08-16 04:37:00,47.0,47.0,29.45,SW,225,0.0,0.0,100,0.00,,,0.00,Rainwise IP-100,2013-08-16 08:37:00,
2013-08-16 04:42:00,46.7,47.0,29.45,SW,225,0.0,0.0,100,0.00,,,0.00,Rainwise IP-100,2013-08-16 08:42:00,
2013-08-16 04:47:00,46.5,47.0,29.45,SW,225,0.0,0.0,100,0.00,,,0.00,Rainwise IP-100,2013-08-16 08:47:00,
2013-08-16 04:52:00,46.2,46.0,29.45,SW,225,0.0,0.0,100,0.00,,,0.00,Rainwise IP-100,2013-08-16 08:52:00,
2013-08-16 04:58:00,45.9,46.0,29.45,SW,225,0.0,0.0,100,0.00,,,0.00,Rainwise IP-100,2013-08-16 08:58:00,
2013-08-16 05:03:00,45.8,46.0,29.45,SW,225,0.0,0.0,100,0.00,,,0.00,Rainwise IP-100,2013-08-16 09:03:00,
2013-08-16 05:08:00,46.1,46.0,29.45,SW,225,0.0,0.0,100,0.00,,,0.00,Rainwise IP-100,2013-08-16 09:08:00,
2013-08-16 05:13:00,45.9,46.0,29.45,SW,225,0.0,0.0,100,0.00,,,0.00,Rainwise IP-100,2013-08-16 09:13:00,
2013-08-16 05:18:00,45.9,46.0,29.45,SW,225,0.0,0.0,100,0.00,,,0.00,Rainwise IP-100,2013-08-16 09:18:00,
2013-08-16 05:23:00,45.9,46.0,29.45,SW,225,0.0,0.0,100,0.00,,,0.00,Rainwise IP-100,2013-08-16 09:23:00,
2013-08-16 05:28:00,45.7,46.0,29.46,SW,225,0.0,0.0,100,0.00,,,0.00,Rainwise IP-100,2013-08-16 09:28:00,
2013-08-16 05:34:00,45.7,46.0,29.45,SW,225,0.0,0.0,100,0.00,,,0.00,Rainwise IP-100,2013-08-16 09:34:00,
2013-08-16 05:39:00,45.7,46.0,29.46,SW,225,0.0,0.0,100,0.00,,,0.00,Rainwise IP-100,2013-08-16 09:39:00,
2013-08-16 05:44:00,45.8,46.0,29.46,SW,225,0.0,0.0,100,0.00,,,0.00,Rainwise IP-100,2013-08-16 09:44:00,
2013-08-16 05:49:00,45.8,46.0,29.46,SW,225,0.0,0.0,100,0.00,,,0.00,Rainwise IP-100,2013-08-16 09:49:00,
2013-08-16 05:54:00,45.6,46.0,29.46,SW,225,0.0,0.0,100,0.00,,,0.00,Rainwise IP-100,2013-08-16 09:54:00,
2013-08-16 05:59:00,45.6,46.0,29.46,SW,225,0.0,0.0,100,0.00,,,0.00,Rainwise IP-100,2013-08-16 09:59:00,
2013-08-16 06:04:00,45.8,46.0,29.46,SW,225,0.0,0.0,100,0.00,,,0.00,Rainwise IP-100,2013-08-16 10:04:00,
2013-08-16 06:09:00,45.9,46.0,29.47,SW,225,0.0,0.0,100,0.00,,,0.00,Rainwise IP-100,2013-08-16 10:09:00,
2013-08-16 06:15:00,46.3,46.0,29.46,SW,225,0.0,0.0,100,0.00,,,0.00,Rainwise IP-100,2013-08-16 10:15:00,
2013-08-16 06:20:00,46.5,47.0,29.47,SW,225,0.0,0.0,100,0.00,,,0.00,Rainwise IP-100,2013-08-16 10:20:00,
2013-08-16 06:25:00,46.7,47.0,29.46,SW,225,0.0,0.0,100,0.00,,,0.00,Rainwise IP-100,2013-08-16 10:25:00,
2013-08-16 06:30:00,46.9,47.0,29.46,SW,225,0.0,0.0,100,0.00,,,0.00,Rainwise IP-100,2013-08-16 10:30:00,
2013-08-16 06:35:00,47.2,47.0,29.46,SW,225,0.0,0.0,100,0.00,,,0.00,Rainwise IP-100,2013-08-16 10:35:00,
2013-08-16 06:40:00,47.7,47.0,29.47,SW,225,0.0,0.0,100,0.00,,,0.00,Rainwise IP-100,2013-08-16 10:40:00,
2013-08-16 06:45:00,47.8,47.0,29.47,SW,225,0.0,0.0,100,0.00,,,0.00,Rainwise IP-100,2013-08-16 10:45:00,
2013-08-16 06:51:00,47.9,48.0,29.47,SW,225,0.0,0.0,100,0.00,,,0.00,Rainwise IP-100,2013-08-16 10:51:00,
2013-08-16 06:56:00,48.0,48.0,29.47,SW,225,0.0,0.0,100,0.00,,,0.00,Rainwise IP-100,2013-08-16 10:56:00,
2013-08-16 07:01:00,48.8,49.0,29.47,SE,135,0.0,0.0,100,0.00,,,0.00,Rainwise IP-100,2013-08-16 11:01:00,
2013-08-16 07:06:00,49.3,49.0,29.48,SE,135,0.0,0.0,100,0.00,,,0.00,Rainwise IP-100,2013-08-16 11:06:00,
2013-08-16 07:11:00,49.9,50.0,29.48,SE,135,0.0,3.0,100,0.00,,,0.00,Rainwise IP-100,2013-08-16 11:11:00,
2013-08-16 07:16:00,50.3,50.0,29.48,SE,135,0.0,1.0,100,0.00,,,0.00,Rainwise IP-100,2013-08-16 11:16:00,
2013-08-16 07:21:00,50.9,51.0,29.48,ENE,67,1.0,3.0,100,0.00,,,0.00,Rainwise IP-100,2013-08-16 11:21:00,
2013-08-16 07:26:00,51.5,52.0,29.49,ENE,67,3.0,4.0,100,0.00,,,0.00,Rainwise IP-100,2013-08-16 11:26:00,
2013-08-16 07:32:00,51.9,52.0,29.49,ENE,67,1.0,5.0,100,0.00,,,0.00,Rainwise IP-100,2013-08-16 11:32:00,
2013-08-16 07:37:00,52.0,52.0,29.49,East,90,3.0,5.0,100,0.00,,,0.00,Rainwise IP-100,2013-08-16 11:37:00,
2013-08-16 07:42:00,52.2,52.0,29.49,ENE,67,3.0,5.0,100,0.00,,,0.00,Rainwise IP-100,2013-08-16 11:42:00,
2013-08-16 07:47:00,52.4,52.0,29.49,ENE,67,2.0,5.0,100,0.00,,,0.00,Rainwise IP-100,2013-08-16 11:47:00,
2013-08-16 07:52:00,52.7,53.0,29.49,East,90,3.0,3.0,100,0.00,,,0.00,Rainwise IP-100,2013-08-16 11:52:00,
2013-08-16 07:57:00,52.8,53.0,29.49,East,90,3.0,4.0,100,0.00,,,0.00,Rainwise IP-100,2013-08-16 11:57:00,
2013-08-16 08:02:00,52.9,53.0,29.50,ENE,67,3.0,4.0,100,0.00,,,0.00,Rainwise IP-100,2013-08-16 12:02:00,
2013-08-16 08:08:00,53.3,53.0,29.50,East,90,3.0,4.0,100,0.00,,,0.00,Rainwise IP-100,2013-08-16 12:08:00,
2013-08-16 08:13:00,53.8,53.0,29.50,NE,45,2.0,4.0,100,0.00,,,0.00,Rainwise IP-100,2013-08-16 12:13:00,
2013-08-16 08:18:00,55.1,55.0,29.50,East,90,2.0,4.0,100,0.00,,,0.00,Rainwise IP-100,2013-08-16 12:18:00,
2013-08-16 08:23:00,55.7,56.0,29.51,ENE,67,4.0,5.0,100,0.00,,,0.00,Rainwise IP-100,2013-08-16 12:23:00,
2013-08-16 08:28:00,55.8,56.0,29.51,ENE,67,3.0,5.0,100,0.00,,,0.00,Rainwise IP-100,2013-08-16 12:28:00,
2013-08-16 08:33:00,55.6,56.0,29.51,ENE,67,5.0,6.0,100,0.00,,,0.00,Rainwise IP-100,2013-08-16 12:33:00,
2013-08-16 08:38:00,55.3,55.0,29.51,NNE,22,2.0,6.0,100,0.00,,,0.00,Rainwise IP-100,2013-08-16 12:38:00,
2013-08-16 08:43:00,55.4,55.0,29.51,ENE,67,3.0,5.0,100,0.00,,,0.00,Rainwise IP-100,2013-08-16 12:43:00,
2013-08-16 08:49:00,56.2,56.0,29.51,ENE,67,0.0,5.0,100,0.00,,,0.00,Rainwise IP-100,2013-08-16 12:49:00,
2013-08-16 08:54:00,57.9,58.0,29.51,ENE,67,1.0,4.0,100,0.00,,,0.00,Rainwise IP-100,2013-08-16 12:54:00,
2013-08-16 08:59:00,59.1,59.0,29.52,East,90,1.0,3.0,100,0.00,,,0.00,Rainwise IP-100,2013-08-16 12:59:00,
2013-08-16 09:04:00,60.1,60.0,29.52,NE,45,4.0,4.0,100,0.00,,,0.00,Rainwise IP-100,2013-08-16 13:04:00,
2013-08-16 09:09:00,60.4,60.0,29.52,East,90,3.0,6.0,100,0.00,,,0.00,Rainwise IP-100,2013-08-16 13:09:00,
2013-08-16 09:14:00,60.7,60.0,29.52,South,180,1.0,5.0,100,0.00,,,0.00,Rainwise IP-100,2013-08-16 13:14:00,
2013-08-16 09:19:00,61.6,61.0,29.52,East,90,2.0,5.0,100,0.00,,,0.00,Rainwise IP-100,2013-08-16 13:19:00,
2013-08-16 09:25:00,62.1,61.0,29.52,ENE,67,3.0,5.0,99,0.00,,,0.00,Rainwise IP-100,2013-08-16 13:25:00,
2013-08-16 09:30:00,62.6,62.0,29.52,East,90,1.0,6.0,98,0.00,,,0.00,Rainwise IP-100,2013-08-16 13:30:00,
2013-08-16 09:35:00,63.1,61.0,29.53,East,90,4.0,6.0,95,0.00,,,0.00,Rainwise IP-100,2013-08-16 13:35:00,
2013-08-16 09:40:00,63.9,62.0,29.53,East,90,4.0,6.0,94,0.00,,,0.00,Rainwise IP-100,2013-08-16 13:40:00,
2013-08-16 09:45:00,64.4,63.0,29.53,SSE,157,2.0,6.0,95,0.00,,,0.00,Rainwise IP-100,2013-08-16 13:45:00,
2013-08-16 09:50:00,65.4,63.0,29.53,SSE,157,1.0,5.0,92,0.00,,,0.00,Rainwise IP-100,2013-08-16 13:50:00,
2013-08-16 09:55:00,65.9,64.0,29.54,ESE,112,2.0,5.0,93,0.00,,,0.00,Rainwise IP-100,2013-08-16 13:55:00,
2013-08-16 10:00:00,67.1,64.0,29.54,East,90,2.0,5.0,90,0.00,,,0.00,Rainwise IP-100,2013-08-16 14:00:00,
2013-08-16 10:06:00,67.5,61.0,29.54,East,90,4.0,6.0,80,0.00,,,0.00,Rainwise IP-100,2013-08-16 14:06:00,
2013-08-16 10:11:00,68.1,62.0,29.54,ESE,112,4.0,6.0,83,0.00,,,0.00,Rainwise IP-100,2013-08-16 14:11:00,
2013-08-16 10:16:00,68.8,62.0,29.54,East,90,2.0,6.0,82,0.00,,,0.00,Rainwise IP-100,2013-08-16 14:16:00,
2013-08-16 10:21:00,69.2,61.0,29.54,East,90,2.0,7.0,75,0.00,,,0.00,Rainwise IP-100,2013-08-16 14:21:00,
2013-08-16 10:26:00,69.8,62.0,29.54,North,360,4.0,6.0,78,0.00,,,0.00,Rainwise IP-100,2013-08-16 14:26:00,
2013-08-16 10:31:00,70.3,57.0,29.54,NW,315,3.0,8.0,65,0.00,,,0.00,Rainwise IP-100,2013-08-16 14:31:00,
2013-08-16 10:36:00,71.2,59.0,29.55,NW,315,2.0,7.0,66,0.00,,,0.00,Rainwise IP-100,2013-08-16 14:36:00,
2013-08-16 10:42:00,71.2,58.0,29.55,NW,315,2.0,9.0,64,0.00,,,0.00,Rainwise IP-100,2013-08-16 14:42:00,
2013-08-16 10:47:00,71.6,58.0,29.55,SW,225,0.0,6.0,63,0.00,,,0.00,Rainwise IP-100,2013-08-16 14:47:00,
2013-08-16 10:52:00,71.0,56.0,29.55,WNW,292,3.0,7.0,61,0.00,,,0.00,Rainwise IP-100,2013-08-16 14:52:00,
2013-08-16 10:57:00,71.2,58.0,29.55,SW,225,6.0,6.0,63,0.00,,,0.00,Rainwise IP-100,2013-08-16 14:57:00,
2013-08-16 11:02:00,70.4,56.0,29.55,SW,225,2.0,8.0,61,0.00,,,0.00,Rainwise IP-100,2013-08-16 15:02:00,
2013-08-16 11:07:00,70.3,55.0,29.55,WNW,292,1.0,6.0,60,0.00,,,0.00,Rainwise IP-100,2013-08-16 15:07:00,
2013-08-16 11:12:00,69.9,56.0,29.55,West,270,2.0,4.0,62,0.00,,,0.00,Rainwise IP-100,2013-08-16 15:12:00,
2013-08-16 11:17:00,69.8,57.0,29.55,WSW,247,2.0,7.0,66,0.00,,,0.00,Rainwise IP-100,2013-08-16 15:17:00,
2013-08-16 11:23:00,70.9,58.0,29.54,SW,225,1.0,6.0,65,0.00,,,0.00,Rainwise IP-100,2013-08-16 15:23:00,
2013-08-16 11:28:00,70.7,56.0,29.55,SSE,157,1.0,7.0,61,0.00,,,0.00,Rainwise IP-100,2013-08-16 15:28:00,
2013-08-16 11:33:00,71.3,55.0,29.54,West,270,3.0,7.0,57,0.00,,,0.00,Rainwise IP-100,2013-08-16 15:33:00,
2013-08-16 11:38:00,72.3,58.0,29.55,NW,315,5.0,7.0,61,0.00,,,0.00,Rainwise IP-100,2013-08-16 15:38:00,
2013-08-16 11:43:00,73.1,54.0,29.55,North,360,6.0,9.0,51,0.00,,,0.00,Rainwise IP-100,2013-08-16 15:43:00,
2013-08-16 11:48:00,73.6,56.0,29.55,NNE,22,1.0,9.0,55,0.00,,,0.00,Rainwise IP-100,2013-08-16 15:48:00,
2013-08-16 11:53:00,73.6,56.0,29.55,WSW,247,6.0,10.0,55,0.00,,,0.00,Rainwise IP-100,2013-08-16 15:53:00,
2013-08-16 11:59:00,73.5,54.0,29.55,SW,225,6.0,9.0,51,0.00,,,0.00,Rainwise IP-100,2013-08-16 15:59:00,
2013-08-16 12:04:00,73.1,54.0,29.55,WSW,247,5.0,9.0,51,0.00,,,0.00,Rainwise IP-100,2013-08-16 16:04:00,
2013-08-16 12:09:00,72.6,53.0,29.55,West,270,7.0,9.0,50,0.00,,,0.00,Rainwise IP-100,2013-08-16 16:09:00,
2013-08-16 12:14:00,72.8,55.0,29.55,West,270,5.0,9.0,54,0.00,,,0.00,Rainwise IP-100,2013-08-16 16:14:00,
2013-08-16 12:19:00,73.5,56.0,29.55,West,270,0.0,8.0,53,0.00,,,0.00,Rainwise IP-100,2013-08-16 16:19:00,
2013-08-16 12:24:00,74.2,54.0,29.55,WSW,247,5.0,8.0,50,0.00,,,0.00,Rainwise IP-100,2013-08-16 16:24:00,
2013-08-16 12:29:00,73.9,54.0,29.55,NW,315,3.0,11.0,50,0.00,,,0.00,Rainwise IP-100,2013-08-16 16:29:00,
2013-08-16 12:34:00,72.8,51.0,29.55,West,270,3.0,7.0,47,0.00,,,0.00,Rainwise IP-100,2013-08-16 16:34:00,
2013-08-16 12:40:00,72.9,54.0,29.55,SW,225,0.0,7.0,52,0.00,,,0.00,Rainwise IP-100,2013-08-16 16:40:00,
2013-08-16 12:45:00,73.8,52.0,29.55,West,270,4.0,10.0,46,0.00,,,0.00,Rainwise IP-100,2013-08-16 16:45:00,
2013-08-16 12:50:00,74.2,54.0,29.55,WNW,292,9.0,11.0,50,0.00,,,0.00,Rainwise IP-100,2013-08-16 16:50:00,
2013-08-16 12:55:00,73.2,54.0,29.55,NNW,337,4.0,10.0,50,0.00,,,0.00,Rainwise IP-100,2013-08-16 16:55:00,
2013-08-16 13:00:00,73.1,52.0,29.55,NW,315,4.0,9.0,47,0.00,,,0.00,Rainwise IP-100,2013-08-16 17:00:00,
2013-08-16 13:05:00,73.7,52.0,29.55,WSW,247,3.0,9.0,46,0.00,,,0.00,Rainwise IP-100,2013-08-16 17:05:00,
2013-08-16 13:10:00,73.8,50.0,29.55,West,270,6.0,11.0,44,0.00,,,0.00,Rainwise IP-100,2013-08-16 17:10:00,
2013-08-16 13:16:00,73.2,50.0,29.55,West,270,3.0,8.0,45,0.00,,,0.00,Rainwise IP-100,2013-08-16 17:16:00,
2013-08-16 13:21:00,72.9,52.0,29.55,WSW,247,6.0,8.0,48,0.00,,,0.00,Rainwise IP-100,2013-08-16 17:21:00,
2013-08-16 13:26:00,73.6,52.0,29.54,West,270,6.0,9.0,46,0.00,,,0.00,Rainwise IP-100,2013-08-16 17:26:00,
2013-08-16 13:31:00,74.3,50.0,29.54,WSW,247,6.0,8.0,43,0.00,,,0.00,Rainwise IP-100,2013-08-16 17:31:00,
2013-08-16 13:36:00,74.5,51.0,29.54,WNW,292,7.0,10.0,44,0.00,,,0.00,Rainwise IP-100,2013-08-16 17:36:00,
2013-08-16 13:41:00,74.3,51.0,29.55,West,270,4.0,10.0,44,0.00,,,0.00,Rainwise IP-100,2013-08-16 17:41:00,
2013-08-16 13:46:00,74.9,51.0,29.55,SW,225,2.0,7.0,43,0.00,,,0.00,Rainwise IP-100,2013-08-16 17:46:00,
2013-08-16 13:51:00,75.5,52.0,29.55,SW,225,3.0,13.0,44,0.00,,,0.00,Rainwise IP-100,2013-08-16 17:51:00,
2013-08-16 13:57:00,75.5,52.0,29.55,WSW,247,6.0,10.0,44,0.00,,,0.00,Rainwise IP-100,2013-08-16 17:57:00,
2013-08-16 14:02:00,74.8,50.0,29.55,SW,225,9.0,10.0,43,0.00,,,0.00,Rainwise IP-100,2013-08-16 18:02:00,
2013-08-16 14:07:00,74.8,53.0,29.55,SW,225,4.0,10.0,46,0.00,,,0.00,Rainwise IP-100,2013-08-16 18:07:00,
2013-08-16 14:12:00,74.5,50.0,29.55,WSW,247,6.0,10.0,42,0.00,,,0.00,Rainwise IP-100,2013-08-16 18:12:00,
2013-08-16 14:17:00,74.8,50.0,29.55,WSW,247,6.0,9.0,43,0.00,,,0.00,Rainwise IP-100,2013-08-16 18:17:00,
2013-08-16 14:22:00,75.2,50.0,29.55,West,270,6.0,11.0,42,0.00,,,0.00,Rainwise IP-100,2013-08-16 18:22:00,
2013-08-16 14:27:00,74.7,50.0,29.55,WSW,247,5.0,9.0,43,0.00,,,0.00,Rainwise IP-100,2013-08-16 18:27:00,
2013-08-16 14:33:00,74.9,50.0,29.55,WSW,247,7.0,10.0,41,0.00,,,0.00,Rainwise IP-100,2013-08-16 18:33:00,
2013-08-16 14:38:00,75.3,51.0,29.55,NW,315,3.0,9.0,43,0.00,,,0.00,Rainwise IP-100,2013-08-16 18:38:00,
2013-08-16 14:43:00,75.3,52.0,29.55,WNW,292,6.0,7.0,44,0.00,,,0.00,Rainwise IP-100,2013-08-16 18:43:00,
2013-08-16 14:48:00,74.7,51.0,29.55,WNW,292,5.0,7.0,44,0.00,,,0.00,Rainwise IP-100,2013-08-16 18:48:00,
2013-08-16 14:53:00,74.1,50.0,29.55,SW,225,6.0,8.0,44,0.00,,,0.00,Rainwise IP-100,2013-08-16 18:53:00,
2013-08-16 14:58:00,73.6,52.0,29.55,WSW,247,4.0,7.0,46,0.00,,,0.00,Rainwise IP-100,2013-08-16 18:58:00,
2013-08-16 15:03:00,73.2,54.0,29.54,SW,225,5.0,8.0,50,0.00,,,0.00,Rainwise IP-100,2013-08-16 19:03:00,
2013-08-16 15:08:00,74.6,54.0,29.54,NW,315,3.0,6.0,49,0.00,,,0.00,Rainwise IP-100,2013-08-16 19:08:00,
2013-08-16 15:14:00,75.5,51.0,29.54,WSW,247,4.0,8.0,43,0.00,,,0.00,Rainwise IP-100,2013-08-16 19:14:00,
2013-08-16 15:19:00,76.2,50.0,29.55,WSW,247,10.0,10.0,41,0.00,,,0.00,Rainwise IP-100,2013-08-16 19:19:00,
2013-08-16 15:24:00,75.7,53.0,29.55,WSW,247,3.0,10.0,46,0.00,,,0.00,Rainwise IP-100,2013-08-16 19:24:00,
2013-08-16 15:29:00,75.2,54.0,29.54,WSW,247,4.0,7.0,48,0.00,,,0.00,Rainwise IP-100,2013-08-16 19:29:00,
2013-08-16 15:34:00,75.6,53.0,29.54,SW,225,8.0,8.0,46,0.00,,,0.00,Rainwise IP-100,2013-08-16 19:34:00,
2013-08-16 15:39:00,75.7,50.0,29.55,SW,225,0.0,9.0,42,0.00,,,0.00,Rainwise IP-100,2013-08-16 19:39:00,
2013-08-16 15:44:00,76.6,54.0,29.55,WSW,247,1.0,6.0,47,0.00,,,0.00,Rainwise IP-100,2013-08-16 19:44:00,
2013-08-16 15:50:00,76.7,49.0,29.55,WSW,247,6.0,8.0,38,0.00,,,0.00,Rainwise IP-100,2013-08-16 19:50:00,
2013-08-16 15:55:00,76.8,53.0,29.55,SW,225,2.0,8.0,44,0.00,,,0.00,Rainwise IP-100,2013-08-16 19:55:00,
2013-08-16 16:00:00,76.6,53.0,29.55,NNW,337,6.0,10.0,43,0.00,,,0.00,Rainwise IP-100,2013-08-16 20:00:00,
2013-08-16 16:05:00,76.8,52.0,29.55,WSW,247,1.0,7.0,42,0.00,,,0.00,Rainwise IP-100,2013-08-16 20:05:00,
2013-08-16 16:10:00,75.7,51.0,29.55,WSW,247,6.0,8.0,43,0.00,,,0.00,Rainwise IP-100,2013-08-16 20:10:00,
2013-08-16 16:15:00,74.5,53.0,29.55,WSW,247,3.0,7.0,47,0.00,,,0.00,Rainwise IP-100,2013-08-16 20:15:00,
2013-08-16 16:20:00,75.3,55.0,29.55,SW,225,4.0,7.0,50,0.00,,,0.00,Rainwise IP-100,2013-08-16 20:20:00,
2013-08-16 16:25:00,75.7,50.0,29.55,WSW,247,7.0,10.0,42,0.00,,,0.00,Rainwise IP-100,2013-08-16 20:25:00,
2013-08-16 16:31:00,76.1,53.0,29.55,SW,225,4.0,10.0,45,0.00,,,0.00,Rainwise IP-100,2013-08-16 20:31:00,
2013-08-16 16:36:00,76.2,53.0,29.55,West,270,4.0,7.0,44,0.00,,,0.00,Rainwise IP-100,2013-08-16 20:36:00,
2013-08-16 16:41:00,76.6,51.0,29.55,North,360,1.0,7.0,41,0.00,,,0.00,Rainwise IP-100,2013-08-16 20:41:00,
2013-08-16 16:46:00,75.9,51.0,29.55,WSW,247,6.0,9.0,42,0.00,,,0.00,Rainwise IP-100,2013-08-16 20:46:00,
2013-08-16 16:51:00,75.9,50.0,29.55,SW,225,3.0,8.0,40,0.00,,,0.00,Rainwise IP-100,2013-08-16 20:51:00,
2013-08-16 16:56:00,76.5,55.0,29.55,West,270,3.0,6.0,48,0.00,,,0.00,Rainwise IP-100,2013-08-16 20:56:00,
2013-08-16 17:01:00,76.5,53.0,29.55,WSW,247,6.0,6.0,44,0.00,,,0.00,Rainwise IP-100,2013-08-16 21:01:00,
2013-08-16 17:07:00,76.2,53.0,29.55,SW,225,6.0,7.0,45,0.00,,,0.00,Rainwise IP-100,2013-08-16 21:07:00,
2013-08-16 17:12:00,76.2,53.0,29.55,WSW,247,5.0,7.0,44,0.00,,,0.00,Rainwise IP-100,2013-08-16 21:12:00,
2013-08-16 17:17:00,76.1,53.0,29.56,WNW,292,2.0,6.0,45,0.00,,,0.00,Rainwise IP-100,2013-08-16 21:17:00,
2013-08-16 17:22:00,74.4,53.0,29.56,SW,225,6.0,7.0,47,0.00,,,0.00,Rainwise IP-100,2013-08-16 21:22:00,
2013-08-16 17:27:00,73.9,54.0,29.56,SW,225,2.0,7.0,49,0.00,,,0.00,Rainwise IP-100,2013-08-16 21:27:00,
2013-08-16 17:32:00,74.4,53.0,29.55,West,270,2.0,6.0,47,0.00,,,0.00,Rainwise IP-100,2013-08-16 21:32:00,
2013-08-16 17:37:00,74.8,55.0,29.55,WSW,247,4.0,6.0,50,0.00,,,0.00,Rainwise IP-100,2013-08-16 21:37:00,
2013-08-16 17:42:00,75.2,54.0,29.55,WSW,247,3.0,6.0,48,0.00,,,0.00,Rainwise IP-100,2013-08-16 21:42:00,
2013-08-16 17:48:00,74.6,55.0,29.55,WNW,292,4.0,6.0,50,0.00,,,0.00,Rainwise IP-100,2013-08-16 21:48:00,
2013-08-16 17:53:00,74.6,55.0,29.55,WSW,247,3.0,5.0,51,0.00,,,0.00,Rainwise IP-100,2013-08-16 21:53:00,
2013-08-16 17:58:00,75.0,56.0,29.55,WNW,292,3.0,5.0,51,0.00,,,0.00,Rainwise IP-100,2013-08-16 21:58:00,
2013-08-16 18:03:00,75.2,56.0,29.56,West,270,2.0,5.0,51,0.00,,,0.00,Rainwise IP-100,2013-08-16 22:03:00,
2013-08-16 18:08:00,75.3,57.0,29.56,WSW,247,1.0,4.0,54,0.00,,,0.00,Rainwise IP-100,2013-08-16 22:08:00,
2013-08-16 18:13:00,75.3,55.0,29.56,WSW,247,2.0,4.0,50,0.00,,,0.00,Rainwise IP-100,2013-08-16 22:13:00,
2013-08-16 18:18:00,74.9,57.0,29.56,West,270,3.0,4.0,55,0.00,,,0.00,Rainwise IP-100,2013-08-16 22:18:00,
2013-08-16 18:24:00,74.6,59.0,29.56,West,270,2.0,4.0,58,0.00,,,0.00,Rainwise IP-100,2013-08-16 22:24:00,
2013-08-16 18:29:00,74.2,60.0,29.56,West,270,2.0,3.0,61,0.00,,,0.00,Rainwise IP-100,2013-08-16 22:29:00,
2013-08-16 18:34:00,73.8,60.0,29.55,WSW,247,3.0,4.0,62,0.00,,,0.00,Rainwise IP-100,2013-08-16 22:34:00,
2013-08-16 18:39:00,72.9,59.0,29.56,WSW,247,1.0,4.0,61,0.00,,,0.00,Rainwise IP-100,2013-08-16 22:39:00,
2013-08-16 18:44:00,71.1,58.0,29.55,WSW,247,5.0,5.0,65,0.00,,,0.00,Rainwise IP-100,2013-08-16 22:44:00,
2013-08-16 18:49:00,69.3,59.0,29.55,West,270,4.0,6.0,69,0.00,,,0.00,Rainwise IP-100,2013-08-16 22:49:00,
2013-08-16 18:54:00,68.8,59.0,29.55,WSW,247,3.0,5.0,71,0.00,,,0.00,Rainwise IP-100,2013-08-16 22:54:00,
2013-08-16 18:59:00,68.6,59.0,29.55,WSW,247,3.0,4.0,73,0.00,,,0.00,Rainwise IP-100,2013-08-16 22:59:00,
2013-08-16 19:05:00,68.3,59.0,29.55,SW,225,4.0,6.0,73,0.00,,,0.00,Rainwise IP-100,2013-08-16 23:05:00,
2013-08-16 19:10:00,67.8,59.0,29.55,WSW,247,4.0,5.0,75,0.00,,,0.00,Rainwise IP-100,2013-08-16 23:10:00,
2013-08-16 19:15:00,66.7,59.0,29.55,WSW,247,3.0,4.0,77,0.00,,,0.00,Rainwise IP-100,2013-08-16 23:15:00,
2013-08-16 19:20:00,65.9,60.0,29.55,WSW,247,2.0,4.0,81,0.00,,,0.00,Rainwise IP-100,2013-08-16 23:20:00,
2013-08-16 19:25:00,65.2,59.0,29.55,WSW,247,2.0,6.0,83,0.00,,,0.00,Rainwise IP-100,2013-08-16 23:25:00,
2013-08-16 19:30:00,64.6,59.0,29.55,WSW,247,2.0,4.0,84,0.00,,,0.00,Rainwise IP-100,2013-08-16 23:30:00,
2013-08-16 19:35:00,64.2,59.0,29.54,West,270,2.0,5.0,85,0.00,,,0.00,Rainwise IP-100,2013-08-16 23:35:00,
2013-08-16 19:41:00,63.3,58.0,29.54,West,270,2.0,3.0,85,0.00,,,0.00,Rainwise IP-100,2013-08-16 23:41:00,
2013-08-16 19:46:00,62.4,59.0,29.54,West,270,2.0,3.0,87,0.00,,,0.00,Rainwise IP-100,2013-08-16 23:46:00,
2013-08-16 19:51:00,61.8,59.0,29.54,WNW,292,3.0,4.0,90,0.00,,,0.00,Rainwise IP-100,2013-08-16 23:51:00,
2013-08-16 19:56:00,61.3,59.0,29.54,WNW,292,4.0,6.0,92,0.00,,,0.00,Rainwise IP-100,2013-08-16 23:56:00,
2013-08-16 20:01:00,61.1,58.0,29.54,WNW,292,2.0,5.0,91,0.00,,,0.00,Rainwise IP-100,2013-08-17 00:01:00,
2013-08-16 20:06:00,60.9,58.0,29.54,WNW,292,3.0,3.0,91,0.00,,,0.00,Rainwise IP-100,2013-08-17 00:06:00,
2013-08-16 20:11:00,60.7,58.0,29.54,WNW,292,3.0,6.0,92,0.00,,,0.00,Rainwise IP-100,2013-08-17 00:11:00,
2013-08-16 20:16:00,60.5,58.0,29.54,WNW,292,4.0,4.0,92,0.00,,,0.00,Rainwise IP-100,2013-08-17 00:16:00,
2013-08-16 20:22:00,60.3,57.0,29.54,WNW,292,3.0,5.0,92,0.00,,,0.00,Rainwise IP-100,2013-08-17 00:22:00,
2013-08-16 20:27:00,60.0,57.0,29.54,WNW,292,3.0,4.0,92,0.00,,,0.00,Rainwise IP-100,2013-08-17 00:27:00,
2013-08-16 20:32:00,59.7,57.0,29.54,WNW,292,2.0,6.0,94,0.00,,,0.00,Rainwise IP-100,2013-08-17 00:32:00,
2013-08-16 20:37:00,59.1,56.0,29.54,WNW,292,2.0,3.0,92,0.00,,,0.00,Rainwise IP-100,2013-08-17 00:37:00,
2013-08-16 20:42:00,58.5,57.0,29.54,WNW,292,1.0,3.0,94,0.00,,,0.00,Rainwise IP-100,2013-08-17 00:42:00,
2013-08-16 20:47:00,58.2,57.0,29.55,WSW,247,3.0,4.0,95,0.00,,,0.00,Rainwise IP-100,2013-08-17 00:47:00,
2013-08-16 20:52:00,58.6,57.0,29.55,WSW,247,3.0,4.0,95,0.00,,,0.00,Rainwise IP-100,2013-08-17 00:52:00,
2013-08-16 20:58:00,58.6,57.0,29.55,WSW,247,1.0,4.0,94,0.00,,,0.00,Rainwise IP-100,2013-08-17 00:58:00,
2013-08-16 21:03:00,58.3,56.0,29.55,WSW,247,0.0,3.0,93,0.00,,,0.00,Rainwise IP-100,2013-08-17 01:03:00,
2013-08-16 21:08:00,57.7,55.0,29.56,WSW,247,0.0,0.0,91,0.00,,,0.00,Rainwise IP-100,2013-08-17 01:08:00,
2013-08-16 21:13:00,56.9,55.0,29.56,WSW,247,0.0,0.0,94,0.00,,,0.00,Rainwise IP-100,2013-08-17 01:13:00,
2013-08-16 21:18:00,56.5,55.0,29.55,WSW,247,0.0,0.0,96,0.00,,,0.00,Rainwise IP-100,2013-08-17 01:18:00,
2013-08-16 21:23:00,55.9,55.0,29.55,WSW,247,0.0,2.0,98,0.00,,,0.00,Rainwise IP-100,2013-08-17 01:23:00,
2013-08-16 21:28:00,55.6,55.0,29.55,WSW,247,0.0,0.0,97,0.00,,,0.00,Rainwise IP-100,2013-08-17 01:28:00,
2013-08-16 21:33:00,55.3,54.0,29.55,WSW,247,0.0,0.0,98,0.00,,,0.00,Rainwise IP-100,2013-08-17 01:33:00,
2013-08-16 21:39:00,54.6,54.0,29.55,WSW,247,0.0,0.0,100,0.00,,,0.00,Rainwise IP-100,2013-08-17 01:39:00,
2013-08-16 21:44:00,54.4,54.0,29.54,WSW,247,0.0,0.0,100,0.00,,,0.00,Rainwise IP-100,2013-08-17 01:44:00,
2013-08-16 21:49:00,54.1,54.0,29.54,WSW,247,0.0,0.0,99,0.00,,,0.00,Rainwise IP-100,2013-08-17 01:49:00,
2013-08-16 21:54:00,53.9,54.0,29.54,WSW,247,0.0,2.0,100,0.00,,,0.00,Rainwise IP-100,2013-08-17 01:54:00,
2013-08-16 21:59:00,53.9,54.0,29.54,WSW,247,0.0,0.0,100,0.00,,,0.00,Rainwise IP-100,2013-08-17 01:59:00,
2013-08-16 22:04:00,53.7,53.0,29.54,WSW,247,0.0,0.0,100,0.00,,,0.00,Rainwise IP-100,2013-08-17 02:04:00,
2013-08-16 22:09:00,53.7,53.0,29.54,WSW,247,0.0,0.0,100,0.00,,,0.00,Rainwise IP-100,2013-08-17 02:09:00,
2013-08-16 22:15:00,53.6,53.0,29.54,WSW,247,0.0,0.0,100,0.00,,,0.00,Rainwise IP-100,2013-08-17 02:15:00,
2013-08-16 22:20:00,53.5,53.0,29.54,WSW,247,0.0,0.0,100,0.00,,,0.00,Rainwise IP-100,2013-08-17 02:20:00,
2013-08-16 22:25:00,53.2,53.0,29.54,WSW,247,0.0,0.0,100,0.00,,,0.00,Rainwise IP-100,2013-08-17 02:25:00,
2013-08-16 22:30:00,53.2,53.0,29.54,WSW,247,0.0,0.0,100,0.00,,,0.00,Rainwise IP-100,2013-08-17 02:30:00,
2013-08-16 22:35:00,53.2,53.0,29.54,WNW,292,0.0,5.0,100,0.00,,,0.00,Rainwise IP-100,2013-08-17 02:35:00,
2013-08-16 22:40:00,53.1,53.0,29.54,WNW,292,1.0,3.0,100,0.00,,,0.00,Rainwise IP-100,2013-08-17 02:40:00,
2013-08-16 22:45:00,53.1,53.0,29.54,WNW,292,0.0,3.0,100,0.00,,,0.00,Rainwise IP-100,2013-08-17 02:45:00,
2013-08-16 22:50:00,52.9,53.0,29.54,WNW,292,0.0,2.0,100,0.00,,,0.00,Rainwise IP-100,2013-08-17 02:50:00,
2013-08-16 22:56:00,53.1,53.0,29.55,WNW,292,2.0,2.0,100,0.00,,,0.00,Rainwise IP-100,2013-08-17 02:56:00,
2013-08-16 23:01:00,52.9,53.0,29.55,WNW,292,0.0,3.0,100,0.00,,,0.00,Rainwise IP-100,2013-08-17 03:01:00,
2013-08-16 23:06:00,52.9,53.0,29.55,WNW,292,0.0,0.0,100,0.00,,,0.00,Rainwise IP-100,2013-08-17 03:06:00,
2013-08-16 23:11:00,52.9,53.0,29.55,WNW,292,0.0,2.0,100,0.00,,,0.00,Rainwise IP-100,2013-08-17 03:11:00,
2013-08-16 23:16:00,52.6,53.0,29.55,WNW,292,2.0,2.0,100,0.00,,,0.00,Rainwise IP-100,2013-08-17 03:16:00,
2013-08-16 23:21:00,52.3,52.0,29.55,WNW,292,0.0,3.0,100,0.00,,,0.00,Rainwise IP-100,2013-08-17 03:21:00,
2013-08-16 23:26:00,52.1,52.0,29.55,WNW,292,0.0,2.0,100,0.00,,,0.00,Rainwise IP-100,2013-08-17 03:26:00,
2013-08-16 23:32:00,52.2,52.0,29.55,WSW,247,1.0,4.0,100,0.00,,,0.00,Rainwise IP-100,2013-08-17 03:32:00,
2013-08-16 23:37:00,52.3,52.0,29.54,WSW,247,0.0,3.0,100,0.00,,,0.00,Rainwise IP-100,2013-08-17 03:37:00,
2013-08-16 23:42:00,52.2,52.0,29.55,WSW,247,0.0,0.0,100,0.00,,,0.00,Rainwise IP-100,2013-08-17 03:42:00,
2013-08-16 23:47:00,51.9,52.0,29.54,WSW,247,0.0,0.0,100,0.00,,,0.00,Rainwise IP-100,2013-08-17 03:47:00,
2013-08-16 23:52:00,51.8,52.0,29.55,WSW,247,0.0,2.0,100,0.00,,,0.00,Rainwise IP-100,2013-08-17 03:52:00,
2013-08-16 23:57:00,51.6,52.0,29.55,WSW,247,0.0,1.0,100,0.00,,,0.00,Rainwise IP-100,2013-08-17 03:57:00,